Home   Weather   Horn   Past weeks

Flag for Austria Past Weather in Horn, Lower Austria, Austria — Yesterday and Last 2 Weeks

Now
42 °F

Passing clouds.


Feels Like: 39 °F
Forecast: 34 / 44 °F
Wind: 5 mph from West

Location: Retz

Current Time: Dec 10, 2016 at 8:17:18 am

Latest Report: Dec 10, 2016 at 7:00 am


Visibility: 4 mi

Pressure: 30.31 "Hg

Humidity: 85%

Dew Point: 37 °F

Location of HornLocation

Past Weather in Horn — Graph

°F

Horn Temperature Yesterday

Maximum temperature yesterday: 50 °F (at 3:00 pm)
Minimum temperature yesterday: 26 °F (at 12:00 am)
Average temperature yesterday: 37 °F

High & Low Weather Summary for the Past Weeks

 TemperatureHumidityPressure
High50 °F (Dec 9, 3:00 pm)100% (Nov 25, 9:00 am)30.70 "Hg (Nov 25, 9:00 am)
Low23 °F (Dec 6, 5:00 am)44% (Nov 30, 8:00 pm)29.76 "Hg (Dec 2, 7:00 am)
Average34 °F84%30.31 "Hg
* Reported Nov 25 6:00 am — Dec 10 6:00 am, Horn, Weather by CustomWeather, © 2016

Note: Actual official high and low records may vary slightly from our data, if they occured in-between our weather recording intervals... More about our weather records

Advertising

Horn Weather History for the Previous 24 Hours

Scroll right to see more
 ConditionsComfort  
Time TempWeatherWind HumidityBarometerVisibility
6:00 am
Sat, Dec 10
38 °FChilly.3 mph90%30.32 "HgN/A
5:00 am40 °FQuite cool.2 mph86%30.33 "HgN/A
4:00 am40 °FChilly.2 mph86%30.32 "HgN/A
3:00 am40 °FChilly.2 mph87%30.35 "HgN/A
2:00 am38 °FChilly.3 mph90%30.37 "HgN/A
1:00 am41 °FQuite cool.2 mph87%30.37 "HgN/A
12:00 am41 °FQuite cool.2 mph89%30.39 "HgN/A
11:00 pm
Fri, Dec 9
43 °FQuite cool.5 mph85%30.39 "HgN/A
10:00 pm44 °FQuite cool.2 mph85%30.40 "HgN/A
9:00 pm45 °FCool.6 mph84%30.40 "HgN/A
8:00 pm45 °FCool.6 mph86%30.39 "HgN/A
7:00 pm46 °FOvercast.6 mph82%30.40 "Hg5 mi
6:00 pm47 °FCool.5 mph74%30.39 "HgN/A
5:00 pm48 °FCool.5 mph64%30.38 "HgN/A
4:00 pm49 °FCool.3 mph57%30.37 "HgN/A
3:00 pm50 °FCool.5 mph54%30.35 "HgN/A
2:00 pm50 °FCool.5 mph53%30.35 "HgN/A
1:00 pm48 °FOvercast.5 mph58%30.36 "Hg12 mi
12:00 pm40 °FChilly.2 mph80%30.39 "HgN/A
11:00 am36 °FChilly.1 mph88%30.41 "HgN/A
10:00 am32 °FChilly.1 mph97%30.42 "HgN/A
9:00 am30 °FChilly.2 mph92%30.40 "HgN/A
8:00 am30 °FChilly.5 mph94%30.40 "HgN/A
Weather by CustomWeather, © 2016

See weather overviewHow to use our weather pages